Vertical_Velocity
0 4 -6 -4 8 -4 -3 8 2 -9 -14 35 35 -4 2 -1 13 -6 -4 -12 5 -9 -3 -3 -6 -0 -3 1 1 0 1 1 0 3 -3 -12 3 3 4 11 14 7 -3 1
8 1 -3 7 -7 -5 -0 6 -14 -8 2 7 9 0 8 3 2 27 0 -2 3 6 -4 -8 -6 -3 -0 -0 -0 -0 1 1 1 3 3 0 2 -9 -0 2 16 -1 -4 2
1 -15 11 -1 -4 7 -2 1 -7 2 -2 6 8 -6 -4 -9 -12 -5 23 1 11 -2 -5 -7 -8 -2 -1 -0 0 -0 -1 -0 -1 0 3 1 8 2 2 -6 16 -3 -5 3
-6 1 5 7 -4 19 13 4 1 1 16 -3 29 -14 -3 -2 -6 -3 -1 14 5 -6 -3 -8 -2 -6 -1 3 -1 0 -2 0 -3 -3 1 2 0 -1 -11 1 9 8 4 -2
-10 -1 -1 -1 -8 19 -4 10 19 6 -6 20 -12 18 -35 7 1 1 -3 4 -0 0 -5 -9 -2 0 -5 2 1 -1 -1 -0 -1 -4 -3 -1 -3 -5 -6 -7 8 -3 -3 5
-8 12 -15 -19 6 3 -11 -6 -17 -12 26 7 -9 17 -16 -18 -8 15 43 10 4 9 -8 1 3 -1 -5 2 1 -1 -0 -1 -0 -2 -4 -2 -1 -3 -4 -2 -4 -1 2 4
3 -5 -3 3 -9 -11 10 -2 -3 6 6 -5 -10 10 -29 -22 -4 10 9 7 6 21 -2 -1 -11 -3 -1 1 -0 0 2 -0 -3 -1 -1 -2 -1 0 -0 2 2 -3 0 -3
5 -4 11 -17 5 -12 -2 -0 -7 -1 -2 -5 -3 -2 -33 -24 -4 10 19 4 0 12 6 -1 -1 -7 -4 -3 2 -3 -2 2 1 -3 -1 3 3 1 2 0 -1 -3 -5 -3
1 -5 1 -3 -1 32 -11 8 -2 1 -6 2 -1 -3 -24 12 16 -5 7 -2 -17 1 -1 -11 -3 -3 -5 -2 5 0 -4 -2 -1 -0 -2 -2 0 1 2 3 -1 -1 -1 -4
-2 -1 11 -11 9 -20 15 1 2 -0 1 0 -3 -3 4 5 18 8 9 22 14 12 16 11 -2 -9 -6 -4 -2 6 2 -2 -3 -2 -3 -4 -5 -3 -2 -3 -1 -0 1 -0
-1 10 -14 9 5 -20 -14 13 -5 -2 5 1 -1 -2 13 9 18 7 12 15 19 18 10 16 3 -4 -4 -9 -2 0 4 2 0 -2 1 2 0 -2 -3 -1 -1 1 2 0
-1 -2 -1 -16 -17 15 28 -0 -6 -0 -1 4 6 -15 5 22 19 15 14 4 10 5 3 11 -8 -6 10 -2 -3 1 4 5 6 7 -1 0 2 -0 -1 -4 -3 -3 0 -1
-2 6 -2 -8 -2 -3 -4 25 -14 -4 12 -9 5 -6 21 -21 -11 23 20 13 11 4 5 -4 -1 2 1 4 10 1 1 -0 -1 7 8 3 -1 -0 3 3 3 1 -1 1
-7 -4 -1 1 16 -1 -6 -0 17 -13 7 -5 -11 -2 -6 15 9 7 -4 -9 -3 3 6 -1 3 -0 2 5 -1 3 -4 1 2 -3 3 4 10 5 0 1 1 2 4 1
1 -7 6 -4 -3 5 -3 -2 2 8 -2 -1 -6 -14 19 -23 16 3 28 -7 1 -2 5 -2 -0 8 3 6 9 4 1 -6 6 -2 -14 -3 5 8 8 4 2 2 -4 1
-1 -3 -0 -9 4 7 13 -14 14 -3 -7 12 -1 -0 -2 5 2 -24 3 -9 2 -8 -10 0 3 2 4 12 9 9 9 -3 2 -8 -1 10 -10 6 7 9 7 5 3 1
-7 5 -2 -2 -2 -6 -2 -2 2 10 -6 11 -13 11 -4 -3 1 27 6 0 -1 -1 -8 -3 -5 -3 -2 1 3 8 10 7 5 -3 -4 -0 -4 -13 -6 4 5 5 3 12
-10 -4 3 -4 -9 0 -8 -0 9 1 -43 -15 55 -29 68 -6 -11 11 4 -6 -11 -4 -2 -0 -2 0 -5 -4 -3 -0 0 2 7 11 6 -5 -0 -3 2 -2 -4 -4 4 6
-2 8 -0 -3 2 -17 -18 5 13 26 33 36 14 32 3 11 16 4 7 -5 -0 2 1 -2 -3 -2 -1 -3 -1 -1 -1 -2 -2 -1 5 2 -3 -1 -1 -3 -5 -7 -5 1
11 12 7 6 1 -2 -13 1 10 21 -3 8 14 12 0 10 -4 9 -11 -13 -5 5 4 3 -3 3 0 2 0 -1 -3 0 -0 2 2 0 -0 -1 -1 -1 1 -1 -1 -3
2 7 -5 -3 1 -7 -4 -22 -16 15 -0 4 13 0 -2 -5 1 -2 -1 0 -2 0 -3 -3 -5 -3 -4 -0 -0 2 6 -0 -1 0 -1 -0 1 1 -2 -0 -4 -0 -2 -2
5 -0 3 9 6 -11 8 -13 -3 -6 -5 1 4 -3 -2 -3 -8 -3 3 -4 -5 -4 -2 -5 -4 -4 -3 -4 -1 -4 -7 -6 -0 7 -1 -1 -3 -3 2 0 2 4 -4 -1
-1 -12 1 -8 -35 -5 9 9 2 -0 7 -2 5 6 3 1 -5 1 1 -4 -5 -7 -9 -8 -6 -5 -4 -3 -3 -3 -4 -5 -4 -4 -7 -4 5 6 -6 -1 6 2 5 3
4 3 -5 21 18 36 6 16 14 8 5 0 5 -3 -18 -3 -11 -11 -4 -2 -2 -2 -3 -2 -3 -5 -5 -6 -5 -6 -6 -8 -7 -7 -6 -5 -6 -7 -1 -1 -0 7 8 4
3 1 -9 21 11 8 3 -2 4 7 16 -0 -2 1 1 -2 1 -2 -2 -1 -4 -5 -3 -3 -3 -2 -2 -1 -3 -4 -5 -6 -4 -6 -9 -9 -5 -12 -7 -2 -1 3 7 9
1 -2 19 1 13 6 3 11 3 -14 -24 15 -9 6 -3 -2 -1 -2 1 -1 -2 -1 -2 -3 -5 -5 -5 -6 -4 -5 -5 -5 -5 -5 -6 -6 -4 -6 -6 -2 1 -0 1 1
Height
3040 3040 3039 3046 3049 3051 3052 3054 3052 3052 3054 3059 3056 3054 3054 3059 3061 3061 3063 3064 3063 3063 3066 3066 3067 3067 3065 3064 3063 3061 3058 3056 3056 3058 3061 3065 3065 3064 3066 3072 3077 3081 3087 3091
3035 3031 3037 3043 3047 3049 3049 3049 3046 3047 3050 3052 3051 3049 3052 3053 3054 3056 3056 3057 3059 3060 3061 3062 3064 3064 3063 3061 3060 3059 3057 3056 3055 3055 3056 3057 3057 3058 3061 3066 3072 3079 3083 3089
3030 3030 3032 3037 3040 3044 3044 3045 3045 3047 3046 3049 3048 3045 3045 3047 3048 3050 3052 3053 3054 3054 3056 3058 3061 3062 3061 3060 3058 3057 3056 3055 3053 3053 3054 3054 3054 3056 3058 3063 3069 3075 3080 3085
3027 3024 3026 3032 3033 3039 3040 3043 3044 3044 3046 3044 3044 3043 3041 3042 3042 3043 3045 3048 3050 3050 3051 3055 3056 3060 3059 3058 3057 3056 3055 3054 3052 3050 3052 3053 3055 3055 3055 3060 3066 3072 3077 3082
3026 3023 3024 3027 3030 3034 3036 3041 3042 3042 3041 3041 3038 3040 3032 3035 3035 3036 3038 3041 3043 3043 3046 3049 3052 3056 3057 3057 3055 3054 3053 3053 3052 3050 3050 3051 3053 3054 3056 3062 3067 3071 3075 3079
3023 3022 3022 3023 3026 3029 3036 3036 3036 3038 3040 3035 3034 3037 3028 3028 3029 3031 3034 3034 3038 3039 3042 3046 3050 3053 3055 3055 3055 3053 3052 3052 3051 3050 3050 3051 3052 3054 3056 3060 3064 3070 3073 3078
3019 3017 3019 3018 3024 3028 3033 3037 3042 3036 3035 3030 3032 3032 3027 3023 3025 3029 3027 3026 3032 3036 3038 3042 3046 3049 3051 3052 3052 3052 3051 3051 3052 3051 3050 3050 3052 3055 3057 3061 3063 3066 3070 3072
3017 3016 3014 3016 3021 3023 3027 3032 3036 3030 3029 3026 3026 3022 3020 3019 3023 3027 3029 3027 3029 3032 3035 3039 3043 3046 3048 3049 3050 3050 3050 3049 3051 3051 3051 3051 3051 3053 3056 3058 3061 3064 3066 3070
3015 3013 3011 3013 3017 3022 3021 3022 3030 3033 3030 3026 3020 3018 3020 3017 3020 3025 3025 3024 3027 3031 3033 3036 3039 3042 3044 3046 3048 3048 3049 3049 3049 3050 3051 3051 3052 3053 3054 3056 3058 3060 3062 3066
3013 3012 3009 3012 3015 3016 3018 3022 3027 3030 3028 3028 3016 3017 3015 3015 3018 3019 3022 3024 3027 3030 3032 3033 3036 3039 3041 3042 3044 3046 3047 3048 3048 3048 3050 3052 3052 3053 3053 3054 3056 3058 3060 3061
3012 3012 3009 3010 3011 3012 3016 3017 3021 3024 3024 3019 3017 3015 3016 3015 3016 3016 3019 3024 3027 3029 3031 3034 3033 3035 3037 3039 3040 3041 3043 3045 3046 3047 3047 3049 3051 3052 3052 3054 3055 3056 3058 3059
3009 3008 3006 3006 3008 3009 3011 3012 3016 3017 3019 3018 3017 3015 3012 3015 3018 3017 3017 3020 3022 3022 3025 3027 3028 3029 3034 3035 3037 3038 3039 3040 3042 3045 3045 3045 3046 3048 3051 3052 3054 3055 3056 3058
3006 3007 3005 3003 3005 3006 3007 3009 3011 3014 3017 3016 3018 3013 3011 3008 3013 3016 3015 3017 3018 3020 3023 3025 3028 3027 3028 3030 3034 3036 3036 3036 3037 3040 3042 3043 3044 3044 3047 3049 3051 3051 3053 3055
3004 3005 3004 3004 3003 3004 3002 3004 3007 3010 3011 3010 3010 3010 3010 3013 3014 3015 3016 3017 3016 3017 3021 3023 3025 3027 3027 3028 3028 3030 3030 3032 3034 3035 3036 3038 3040 3041 3042 3043 3045 3046 3048 3048
3003 3002 3001 2998 2999 3000 2997 2997 3000 3002 3006 3006 3007 3008 3009 3010 3010 3012 3014 3016 3015 3015 3019 3021 3023 3027 3027 3026 3026 3026 3027 3027 3029 3029 3031 3030 3032 3035 3037 3037 3037 3039 3040 3042
3000 2999 2997 2996 2998 2996 2996 2992 2996 2997 2999 3001 3004 3002 3001 3004 3005 3008 3013 3013 3011 3010 3016 3019 3021 3022 3023 3024 3024 3023 3022 3020 3020 3020 3022 3025 3024 3025 3027 3029 3030 3031 3032 3033
2999 2999 2996 2993 2992 2992 2992 2991 2992 2992 2994 2998 2998 3001 3001 3001 3007 3012 3010 3008 3008 3007 3008 3012 3014 3015 3017 3017 3017 3017 3018 3017 3015 3014 3014 3015 3015 3016 3017 3017 3018 3020 3022 3023
2996 2998 2998 2994 2994 2991 2988 2986 2988 2988 2991 2995 2999 2998 3004 3003 3006 3007 3005 3005 3005 3004 3005 3009 3010 3010 3010 3009 3010 3010 3011 3011 3011 3011 3009 3008 3007 3005 3007 3007 3007 3009 3011 3009
2993 2995 2996 2996 2993 2990 2986 2986 2988 2987 2992 2990 2992 2995 3000 3002 3001 3003 3003 3001 3002 3002 3004 3005 3004 3005 3005 3004 3003 3002 3001 3001 3001 3002 3002 3001 2998 2998 2997 2996 2995 2998 2998 2996
2984 2988 2993 2993 2991 2990 2983 2982 2983 2985 2987 2987 2987 2989 2993 2994 2994 2998 2996 2997 2998 3001 3003 3001 2998 2999 2998 2998 2996 2994 2994 2992 2991 2990 2989 2989 2989 2988 2987 2986 2984 2985 2984 2984
2979 2983 2983 2988 2988 2984 2983 2982 2982 2985 2990 2985 2985 2986 2989 2990 2994 2995 2995 2995 2996 2999 3000 2998 2995 2993 2991 2990 2988 2986 2984 2983 2981 2979 2977 2976 2975 2974 2974 2974 2974 2973 2973 2972
2972 2978 2979 2985 2985 2983 2983 2982 2984 2983 2983 2984 2985 2986 2988 2989 2991 2992 2992 2994 2996 2997 2996 2995 2994 2992 2990 2986 2983 2979 2976 2973 2969 2966 2964 2964 2962 2961 2960 2959 2960 2960 2960 2960
2971 2971 2975 2976 2976 2977 2976 2978 2979 2980 2981 2982 2984 2985 2987 2990 2990 2991 2993 2994 2992 2991 2990 2989 2988 2986 2984 2980 2977 2974 2970 2966 2963 2959 2955 2951 2947 2946 2945 2945 2945 2945 2945 2946
2968 2967 2968 2974 2974 2974 2973 2972 2971 2975 2976 2980 2982 2984 2985 2987 2987 2989 2987 2987 2986 2985 2983 2982 2981 2979 2976 2973 2970 2966 2962 2958 2955 2950 2945 2941 2936 2933 2930 2929 2930 2930 2930 2931
2966 2965 2966 2970 2967 2968 2971 2972 2969 2970 2974 2977 2979 2980 2981 2981 2982 2981 2981 2980 2978 2977 2975 2974 2972 2971 2969 2966 2963 2960 2956 2953 2949 2944 2939 2933 2928 2922 2916 2916 2915 2916 2916 2917
2963 2961 2958 2964 2961 2962 2967 2969 2971 2971 2973 2975 2976 2977 2975 2976 2976 2975 2975 2973 2971 2969 2968 2967 2965 2962 2959 2956 2954 2950 2947 2944 2940 2935 2931 2926 2920 2913 2909 2906 2905 2906 2906 2906